This is the latest recevied weather packets stored in our database for station/object DO7CRZ-11. If no packets are shown the sender has not sent any weather packets the latest 10 day(s).
| Time | Temp. | Humidity | Pressure | Rain* | Wind** | Luminosity | Snow |
|---|---|---|---|---|---|---|---|
| 1777727527 | 26.11° C | 29% | 1021.7 hPa | 0 mm | - | 585 W/m² | - |
| 1777726930 | 26.11° C | 29% | 1021.8 hPa | 0 mm | - | 601 W/m² | - |
| 1777726333 | 25.56° C | 30% | 1021.9 hPa | 0 mm | - | 618 W/m² | - |
| 1777725129 | 25.56° C | 29% | 1022.3 hPa | 0 mm | - | 645 W/m² | - |
| 1777724532 | 25° C | 28% | 1022.3 hPa | 0 mm | - | 657 W/m² | - |
| 1777723935 | 25° C | 29% | 1022.5 hPa | 0 mm | - | 668 W/m² | - |
| 1777723328 | 25° C | 30% | 1022.6 hPa | 0 mm | - | 678 W/m² | - |
| 1777722730 | 24.44° C | 30% | 1022.6 hPa | 0 mm | - | 680 W/m² | - |
| 1777721527 | 24.44° C | 31% | 1022.9 hPa | 0 mm | - | 698 W/m² | - |
| 1777720930 | 24.44° C | 31% | 1023.1 hPa | 0 mm | - | 700 W/m² | - |
| 1777720332 | 24.44° C | 32% | 1023 hPa | 0 mm | - | 701 W/m² | - |
| 1777719736 | 23.89° C | 32% | 1023.3 hPa | 0 mm | - | 703 W/m² | - |
| 1777718531 | 23.89° C | 32% | 1023.5 hPa | 0 mm | - | 703 W/m² | - |
| 1777717934 | 23.89° C | 33% | 1023.5 hPa | 0 mm | - | 700 W/m² | - |
| 1777717327 | 23.33° C | 33% | 1023.8 hPa | 0 mm | - | 697 W/m² | - |
| 1777716730 | 23.33° C | 33% | 1023.8 hPa | 0 mm | - | 693 W/m² | - |
| 1777716133 | 23.33° C | 33% | 1023.9 hPa | 0 mm | - | 685 W/m² | - |
| 1777715536 | 23.33° C | 32% | 1024 hPa | 0 mm | - | 678 W/m² | - |
| 1777714929 | 23.33° C | 32% | 1024 hPa | 0 mm | - | 671 W/m² | - |
| 1777714332 | 23.33° C | 31% | 1024.2 hPa | 0 mm | - | 660 W/m² | - |
| 1777713735 | 22.78° C | 30% | 1024.2 hPa | 0 mm | - | 646 W/m² | - |
| 1777713128 | 22.78° C | 30% | 1024.4 hPa | 0 mm | - | 635 W/m² | - |
| 1777712531 | 22.78° C | 32% | 1024.4 hPa | 0 mm | - | 622 W/m² | - |
| 1777711935 | 22.78° C | 32% | 1024.5 hPa | 0 mm | - | 608 W/m² | - |
| 1777711328 | 22.78° C | 34% | 1024.4 hPa | 0 mm | - | 589 W/m² | - |
* Rain latest hour (hover to see other rain measurements)
** Current wind speed in m/s (hover to see current wind gust speed)